Location: Unspecified
(0.0000°N, 0.0000°E)
Time: 23:54:43
(UTC+02:00)

SJ-6B - Visible Passes

Search period start: 05 May 2016 00:00
Search period end: 15 May 2016 00:00
Orbit: 511 x 587 km, 97.8° (Epoch: 04 May)

Date Brightness Start Highest point End Pass type
(mag) Time Alt. Az. Time Alt. Az. Time Alt. Az.
05 May 2.7 20:41:04 10° SSE 20:44:56 69° ENE 20:48:42 10° N visible
06 May 2.8 20:36:40 10° SSE 20:40:29 57° ENE 20:44:12 10° N visible
07 May 3.0 20:32:17 10° SSE 20:36:01 47° ENE 20:39:39 10° N visible
08 May 3.2 20:27:56 10° SSE 20:31:33 39° ENE 20:35:05 10° N visible
09 May 3.5 20:23:36 10° SE 20:27:05 33° E 20:30:29 10° NNE visible
10 May 3.7 20:19:18 10° SE 20:22:36 28° E 20:25:51 10° NNE visible
12 May 5.8 21:46:53 10° WSW 21:48:04 11° WSW 21:49:15 10° W visible
13 May 5.7 21:41:45 10° SW 21:43:36 13° WSW 21:45:27 10° WNW visible
14 May 5.6 21:36:51 10° SW 21:39:08 16° WSW 21:41:25 10° WNW visible
